Regional Weather Roundup
Issued by NWS Green Bay, WI

Home | Current Version | Previous Version | Graphics & Text | Print | Product List | Glossary Off
Versions: 1 2 3 4 5 6 7 8 9 10 11 12 13 14 15 16 17 18 19 20 21 22 23 24 25 26 27 28 29 30 31 32 33 34 35 36 37 38 39 40 41 42 43 44 45 46 47 48 49 50

000
ASUS43 KGRB 160959
RWRGRB

NORTH-CENTRAL AND NORTHEAST WISCONSIN REGIONAL WEATHER ROUNDUP
NATIONAL WEATHER SERVICE GREEN BAY WI
500 AM CDT TUE SEP 16 2014

WIZ005-009-010>012-018-019-161100-
NORTH CENTRAL WISCONSIN

CITY           SKY/WX    TMP DP  RH WIND       PRES   REMARKS
IRONWOOD       MOCLDY    43  37  81 SW5       30.10F
MANITOWISH WTR NOT AVBL
ARBOR VITAE    NOT AVBL
EAGLE RIVER    NOT AVBL
LAND O LAKES   NOT AVBL
RHINELANDER    CLEAR     31  30  96 W6        30.16S
PHILLIPS       NOT AVBL
ANTIGO         NOT AVBL
TOMAHAWK       NOT AVBL
MERRILL        NOT AVBL
$$

WIZ013-073-161100-
NORTHEAST WISCONSIN

CITY           SKY/WX    TMP DP  RH WIND       PRES   REMARKS
IRON MOUNTAIN  CLEAR     37  34  89 NW3       30.12S
MARINETTE      CLEAR     39  37  93 W5        30.14S
$$

WIZ017-030-035>037-045-161100-
CENTRAL WISCONSIN

CITY           SKY/WX    TMP DP  RH WIND       PRES   REMARKS
MEDFORD        NOT AVBL
WAUSAU         CLEAR     38  36  92 CALM      30.17S
MOSINEE        CLEAR     36  36 100 W5        30.19S
MARSHFIELD     CLEAR     39  36  89 W7        30.19R
WISC RAPIDS    CLEAR     36  35  96 CALM      30.21S FOG
STEVENS POINT  NOT AVBL
WAUPACA        NOT AVBL
SHAWANO        CLEAR     41  38  89 W5        30.18S
CLINTONVILLE   CLEAR     37  36  93 CALM      30.18S
$$

WIZ038-039-048-051-161100-
FOX VALLEY

CITY           SKY/WX    TMP DP  RH WIND       PRES   REMARKS
NWS GREEN BAY  CLEAR     39  38  96 W5        30.18R
APPLETON       CLEAR     39  37  93 W9        30.19S
OSHKOSH        CLEAR     43  40  89 W7        30.19S
FOND DU LAC    CLEAR     39  36  89 SW3       30.20S
$$

WIZ022-050-052-161100-
EAST CENTRAL WISCONSIN

CITY           SKY/WX    TMP DP  RH WIND       PRES   REMARKS
STURGEON BAY   CLEAR     45  39  81 SW3       30.16R
MANITOWOC      NOT AVBL
SHEBOYGAN      CLEAR     40  38  93 NW3       30.18S
$$

LMZ563-521-522-541>543-161100-
LAKESHORE

STATION/POSITION TIME  TEMP    WIND        PRES    VSBY  WAVE
                       AIR SEA DIR/SP/G                  HT/PER
                 (UTC) (F)     (DEG/KT/KT) (MB)    (MI)  (FT/S)
SHEBOYGAN LKSHOR 0900   47 48  290/  7/  8 1022.4R
KEWAUNEE LKSHORE 0900   43     290/  5/  6 1020.3S
NORTHPORT PIER   0900   50     250/  4/  6 1020.3F
N MID LAKE BUOY  0900   54 58  300/ 10/ 12 1020.3S         1/ 3
S GREEN BAY BUOY 0900   51     VRB  8/ 10  1021.9F
CHAMBERS ISLAND  0900   50     240/  5/  8 1020.7F
MENOMINEE LKSHOR 0900   45     250/  6/  8 1021.3F
$$


USA.gov is the U.S. government's official web portal to all federal, state and local government web resources and services.